Time,TemperatureF,DewpointF,PressureIn,WindDirection,WindDirectionDegrees,WindSpeedMPH,WindSpeedGustMPH,Humidity,HourlyPrecipIn,Conditions,Clouds,dailyrainin,SoftwareType,DateUTC
2013-02-28 00:00:00,36.5,33.0,29.79,NE,45,0.7,2.2,87,0.00,,,0.00,pywws,2013-02-28 05:00:00,
2013-02-28 00:02:00,36.5,33.0,29.79,North,0,0.0,1.6,87,0.00,,,0.00,pywws,2013-02-28 05:02:00,
2013-02-28 00:08:00,36.7,32.9,29.79,West,270,0.7,2.2,86,0.00,,,0.00,pywws,2013-02-28 05:08:00,
2013-02-28 00:14:00,36.7,32.9,29.79,NE,45,0.0,1.6,86,0.01,,,0.01,pywws,2013-02-28 05:14:00,
2013-02-28 00:19:00,36.5,32.7,29.79,NE,45,1.6,3.8,86,0.01,,,0.01,pywws,2013-02-28 05:19:00,
2013-02-28 00:25:00,36.5,32.7,29.79,NE,45,1.6,2.2,86,0.01,,,0.01,pywws,2013-02-28 05:25:00,
2013-02-28 00:30:00,36.3,32.5,29.79,South,180,0.0,0.7,86,0.01,,,0.01,pywws,2013-02-28 05:30:00,
2013-02-28 00:36:00,36.5,32.7,29.79,SW,225,0.0,1.6,86,0.01,,,0.01,pywws,2013-02-28 05:36:00,
2013-02-28 00:42:00,36.3,32.5,29.79,SE,135,0.0,1.6,86,0.01,,,0.01,pywws,2013-02-28 05:42:00,
2013-02-28 00:47:00,36.1,32.1,29.79,NE,45,0.7,1.6,85,0.01,,,0.01,pywws,2013-02-28 05:47:00,
2013-02-28 00:54:00,36.1,32.1,29.79,West,270,0.7,2.2,85,0.01,,,0.01,pywws,2013-02-28 05:54:00,
2013-02-28 01:00:00,36.1,32.1,29.79,North,0,0.0,0.0,85,0.01,,,0.01,pywws,2013-02-28 06:00:00,
2013-02-28 01:06:00,36.1,32.1,29.79,North,0,0.0,0.0,85,0.01,,,0.01,pywws,2013-02-28 06:06:00,
2013-02-28 01:12:00,35.8,31.4,29.79,NE,45,0.7,2.2,84,0.01,,,0.01,pywws,2013-02-28 06:12:00,
2013-02-28 01:18:00,35.8,31.4,29.79,North,0,0.7,2.2,84,0.00,,,0.01,pywws,2013-02-28 06:18:00,
2013-02-28 01:23:00,35.6,31.0,29.79,NNE,22,3.1,3.8,83,0.00,,,0.01,pywws,2013-02-28 06:23:00,
2013-02-28 01:29:00,35.6,31.0,29.78,NW,315,2.2,5.4,83,0.00,,,0.01,pywws,2013-02-28 06:29:00,
2013-02-28 01:34:00,35.4,30.8,29.78,North,0,0.7,1.6,83,0.00,,,0.01,pywws,2013-02-28 06:34:00,
2013-02-28 01:40:00,35.4,30.5,29.78,SW,225,1.6,4.5,82,0.00,,,0.01,pywws,2013-02-28 06:40:00,
2013-02-28 01:46:00,35.2,30.3,29.78,North,0,1.6,3.1,82,0.00,,,0.01,pywws,2013-02-28 06:46:00,
2013-02-28 01:51:00,35.2,30.0,29.78,NE,45,4.5,6.0,81,0.00,,,0.01,pywws,2013-02-28 06:51:00,
2013-02-28 01:57:00,35.2,29.7,29.78,North,0,1.6,3.1,80,0.00,,,0.01,pywws,2013-02-28 06:57:00,
2013-02-28 02:02:00,35.2,29.4,29.78,NE,45,0.7,1.6,79,0.00,,,0.01,pywws,2013-02-28 07:02:00,
2013-02-28 02:08:00,35.1,29.2,29.78,North,0,2.2,5.4,79,0.00,,,0.01,pywws,2013-02-28 07:08:00,
2013-02-28 02:14:00,35.1,28.9,29.78,NE,45,1.6,2.2,78,0.00,,,0.01,pywws,2013-02-28 07:14:00,
2013-02-28 02:19:00,35.1,28.9,29.77,North,0,1.6,2.2,78,0.00,,,0.01,pywws,2013-02-28 07:19:00,
2013-02-28 02:25:00,35.1,28.9,29.77,North,0,0.7,1.6,78,0.00,,,0.01,pywws,2013-02-28 07:25:00,
2013-02-28 02:30:00,35.1,28.6,29.77,North,0,0.0,1.6,77,0.00,,,0.01,pywws,2013-02-28 07:30:00,
2013-02-28 02:36:00,34.9,28.4,29.77,NW,315,0.7,2.2,77,0.00,,,0.01,pywws,2013-02-28 07:36:00,
2013-02-28 02:42:00,35.1,28.3,29.77,North,0,0.7,1.6,76,0.00,,,0.01,pywws,2013-02-28 07:42:00,
2013-02-28 02:47:00,35.1,27.6,29.77,NW,315,2.2,3.8,74,0.00,,,0.01,pywws,2013-02-28 07:47:00,
2013-02-28 02:53:00,35.1,27.6,29.76,NE,45,3.1,5.4,74,0.00,,,0.01,pywws,2013-02-28 07:53:00,
2013-02-28 02:58:00,35.2,27.5,29.77,NE,45,1.6,3.1,73,0.00,,,0.01,pywws,2013-02-28 07:58:00,
2013-02-28 03:04:00,35.2,27.5,29.76,North,0,0.0,1.6,73,0.00,,,0.01,pywws,2013-02-28 08:04:00,
2013-02-28 03:10:00,35.2,27.5,29.76,East,90,0.0,1.6,73,0.00,,,0.01,pywws,2013-02-28 08:10:00,
2013-02-28 03:15:00,35.2,27.1,29.76,North,0,0.0,2.2,72,0.00,,,0.01,pywws,2013-02-28 08:15:00,
2013-02-28 03:21:00,35.2,26.8,29.76,NW,315,1.6,2.2,71,0.00,,,0.01,pywws,2013-02-28 08:21:00,
2013-02-28 03:26:00,35.4,26.6,29.76,NW,315,0.0,0.7,70,0.00,,,0.01,pywws,2013-02-28 08:26:00,
2013-02-28 03:32:00,35.4,26.3,29.76,NW,315,0.0,1.6,69,0.00,,,0.01,pywws,2013-02-28 08:32:00,
2013-02-28 03:38:00,35.2,26.1,29.76,South,180,0.7,1.6,69,0.00,,,0.01,pywws,2013-02-28 08:38:00,
2013-02-28 03:43:00,35.2,26.1,29.75,East,90,0.0,0.7,69,0.00,,,0.01,pywws,2013-02-28 08:43:00,
2013-02-28 03:49:00,35.2,26.1,29.75,SW,225,0.7,1.6,69,0.00,,,0.01,pywws,2013-02-28 08:49:00,
2013-02-28 03:54:00,35.4,25.9,29.75,NE,45,0.7,2.2,68,0.00,,,0.01,pywws,2013-02-28 08:54:00,
2013-02-28 04:00:00,35.4,25.9,29.75,NE,45,0.7,1.6,68,0.00,,,0.01,pywws,2013-02-28 09:00:00,
2013-02-28 04:06:00,35.4,25.9,29.75,NW,315,0.0,0.7,68,0.00,,,0.01,pywws,2013-02-28 09:06:00,
2013-02-28 04:11:00,35.4,25.6,29.76,East,90,0.0,0.0,67,0.00,,,0.01,pywws,2013-02-28 09:11:00,
2013-02-28 04:17:00,35.4,25.6,29.75,NE,45,0.0,0.7,67,0.00,,,0.01,pywws,2013-02-28 09:17:00,
2013-02-28 04:22:00,35.4,25.6,29.75,NW,315,1.6,2.2,67,0.00,,,0.01,pywws,2013-02-28 09:22:00,
2013-02-28 04:28:00,35.4,25.2,29.76,NE,45,3.1,5.4,66,0.00,,,0.01,pywws,2013-02-28 09:28:00,
2013-02-28 04:34:00,35.4,24.8,29.76,East,90,1.6,2.2,65,0.00,,,0.01,pywws,2013-02-28 09:34:00,
2013-02-28 04:39:00,35.2,24.7,29.76,NE,45,1.6,2.2,65,0.00,,,0.01,pywws,2013-02-28 09:39:00,
2013-02-28 04:45:00,35.1,25.6,29.76,NE,45,2.2,5.4,68,0.00,,,0.01,pywws,2013-02-28 09:45:00,
2013-02-28 04:50:00,34.7,26.3,29.76,WNW,292,0.7,1.6,71,0.00,,,0.01,pywws,2013-02-28 09:50:00,
2013-02-28 04:56:00,34.3,26.3,29.76,NE,45,0.7,1.6,72,0.00,,,0.01,pywws,2013-02-28 09:56:00,
2013-02-28 05:02:00,34.2,25.4,29.76,North,0,1.6,3.1,70,0.00,,,0.01,pywws,2013-02-28 10:02:00,
2013-02-28 05:07:00,34.2,24.0,29.76,East,90,1.6,3.1,66,0.00,,,0.01,pywws,2013-02-28 10:07:00,
2013-02-28 05:13:00,34.0,23.5,29.77,NW,315,1.6,2.2,65,0.00,,,0.01,pywws,2013-02-28 10:13:00,
2013-02-28 05:18:00,34.0,23.5,29.77,NE,45,0.7,2.2,65,0.00,,,0.01,pywws,2013-02-28 10:18:00,
2013-02-28 05:24:00,34.0,23.1,29.77,NE,45,0.7,1.6,64,0.00,,,0.01,pywws,2013-02-28 10:24:00,
2013-02-28 05:30:00,34.0,23.1,29.78,NE,45,0.7,1.6,64,0.00,,,0.01,pywws,2013-02-28 10:30:00,
2013-02-28 05:35:00,34.0,23.1,29.78,NW,315,0.7,2.2,64,0.00,,,0.01,pywws,2013-02-28 10:35:00,
2013-02-28 05:41:00,34.0,23.1,29.78,SE,135,1.6,2.2,64,0.00,,,0.01,pywws,2013-02-28 10:41:00,
2013-02-28 05:46:00,34.0,22.7,29.78,NW,315,0.7,1.6,63,0.00,,,0.01,pywws,2013-02-28 10:46:00,
2013-02-28 05:52:00,34.0,22.4,29.78,North,0,0.0,1.6,62,0.00,,,0.01,pywws,2013-02-28 10:52:00,
2013-02-28 05:58:00,34.0,22.4,29.78,NE,45,2.2,3.8,62,0.00,,,0.01,pywws,2013-02-28 10:58:00,
2013-02-28 06:03:00,34.0,22.4,29.78,East,90,0.7,1.6,62,0.00,,,0.01,pywws,2013-02-28 11:03:00,
2013-02-28 06:09:00,34.0,22.4,29.78,North,0,1.6,3.1,62,0.00,,,0.01,pywws,2013-02-28 11:09:00,
2013-02-28 06:14:00,34.0,21.6,29.78,NW,315,2.2,3.8,60,0.00,,,0.01,pywws,2013-02-28 11:14:00,
2013-02-28 06:20:00,34.0,21.6,29.78,North,0,0.7,1.6,60,0.00,,,0.01,pywws,2013-02-28 11:20:00,
2013-02-28 06:26:00,33.8,21.8,29.78,North,0,0.7,1.6,61,0.00,,,0.01,pywws,2013-02-28 11:26:00,
2013-02-28 06:31:00,33.8,21.8,29.78,North,0,1.6,3.1,61,0.00,,,0.01,pywws,2013-02-28 11:31:00,
2013-02-28 06:37:00,33.8,21.8,29.78,NE,45,0.7,1.6,61,0.00,,,0.01,pywws,2013-02-28 11:37:00,
2013-02-28 06:42:00,33.8,21.4,29.78,North,0,0.7,2.2,60,0.00,,,0.01,pywws,2013-02-28 11:42:00,
2013-02-28 06:48:00,33.8,21.0,29.78,ENE,68,2.2,7.6,59,0.00,,,0.01,pywws,2013-02-28 11:48:00,
2013-02-28 06:54:00,33.8,20.6,29.78,NE,45,4.5,6.9,58,0.00,,,0.01,pywws,2013-02-28 11:54:00,
2013-02-28 06:59:00,33.8,20.6,29.78,NE,45,1.6,4.5,58,0.00,,,0.01,pywws,2013-02-28 11:59:00,
2013-02-28 07:05:00,33.8,20.6,29.78,NE,45,1.6,4.5,58,0.00,,,0.01,pywws,2013-02-28 12:05:00,
2013-02-28 07:10:00,34.0,20.0,29.78,North,0,1.6,2.2,56,0.00,,,0.01,pywws,2013-02-28 12:10:00,
2013-02-28 07:16:00,34.0,20.0,29.79,North,0,2.2,3.8,56,0.00,,,0.01,pywws,2013-02-28 12:16:00,
2013-02-28 07:22:00,34.0,20.0,29.79,WNW,292,0.0,1.6,56,0.00,,,0.01,pywws,2013-02-28 12:22:00,
2013-02-28 07:27:00,34.0,20.4,29.79,East,90,1.6,2.2,57,0.00,,,0.01,pywws,2013-02-28 12:27:00,
2013-02-28 07:33:00,34.0,20.0,29.79,West,270,2.2,3.8,56,0.00,,,0.01,pywws,2013-02-28 12:33:00,
2013-02-28 07:38:00,34.0,20.0,29.80,North,0,0.7,2.2,56,0.00,,,0.01,pywws,2013-02-28 12:38:00,
2013-02-28 07:44:00,34.2,20.1,29.79,NNW,338,0.7,2.2,56,0.00,,,0.01,pywws,2013-02-28 12:44:00,
2013-02-28 07:50:00,34.2,20.5,29.79,North,0,0.7,3.1,57,0.00,,,0.01,pywws,2013-02-28 12:50:00,
2013-02-28 07:55:00,34.2,20.1,29.79,North,0,0.7,3.1,56,0.00,,,0.01,pywws,2013-02-28 12:55:00,
2013-02-28 08:01:00,34.2,20.5,29.79,NE,45,1.6,3.1,57,0.00,,,0.01,pywws,2013-02-28 13:01:00,
2013-02-28 08:07:00,34.2,20.5,29.80,NE,45,2.2,4.5,57,0.00,,,0.01,pywws,2013-02-28 13:07:00,
2013-02-28 08:13:00,34.2,20.9,29.80,North,0,0.7,1.6,58,0.00,,,0.01,pywws,2013-02-28 13:13:00,
2013-02-28 08:18:00,34.3,21.1,29.80,SW,225,1.6,3.1,58,0.00,,,0.01,pywws,2013-02-28 13:18:00,
2013-02-28 08:24:00,34.3,21.5,29.80,NE,45,2.2,5.4,59,0.00,,,0.01,pywws,2013-02-28 13:24:00,
2013-02-28 08:30:00,34.2,22.5,29.80,NW,315,0.7,1.6,62,0.00,,,0.01,pywws,2013-02-28 13:30:00,
2013-02-28 08:35:00,34.3,22.7,29.81,North,0,4.5,6.0,62,0.00,,,0.01,pywws,2013-02-28 13:35:00,
2013-02-28 08:41:00,34.5,23.2,29.81,NW,315,3.8,9.2,63,0.00,,,0.01,pywws,2013-02-28 13:41:00,
2013-02-28 08:46:00,34.7,23.0,29.82,NE,45,0.7,2.2,62,0.00,,,0.01,pywws,2013-02-28 13:46:00,
2013-02-28 08:52:00,34.9,22.4,29.82,NW,315,2.2,5.4,60,0.00,,,0.01,pywws,2013-02-28 13:52:00,
2013-02-28 08:58:00,35.1,22.6,29.82,NE,45,2.2,3.1,60,0.00,,,0.01,pywws,2013-02-28 13:58:00,
2013-02-28 09:03:00,35.1,22.6,29.82,NE,45,0.7,1.6,60,0.00,,,0.01,pywws,2013-02-28 14:03:00,
2013-02-28 09:09:00,35.2,22.8,29.82,NW,315,0.7,1.6,60,0.00,,,0.01,pywws,2013-02-28 14:09:00,
2013-02-28 09:14:00,35.2,22.4,29.81,SW,225,0.7,2.2,59,0.00,,,0.01,pywws,2013-02-28 14:14:00,
2013-02-28 09:20:00,35.4,22.5,29.82,East,90,3.1,4.5,59,0.00,,,0.01,pywws,2013-02-28 14:20:00,
2013-02-28 09:26:00,35.6,22.7,29.82,NW,315,0.7,1.6,59,0.00,,,0.01,pywws,2013-02-28 14:26:00,
2013-02-28 09:31:00,36.0,23.0,29.82,North,0,2.2,3.8,59,0.00,,,0.01,pywws,2013-02-28 14:31:00,
2013-02-28 09:37:00,36.0,22.6,29.82,NNW,338,0.7,1.6,58,0.00,,,0.01,pywws,2013-02-28 14:37:00,
2013-02-28 09:42:00,36.5,23.6,29.83,NW,315,1.6,3.8,59,0.00,,,0.01,pywws,2013-02-28 14:42:00,
2013-02-28 09:48:00,36.9,23.9,29.83,North,0,1.6,3.1,59,0.00,,,0.01,pywws,2013-02-28 14:48:00,
2013-02-28 09:54:00,37.2,23.4,29.83,NNW,338,0.0,1.6,57,0.00,,,0.01,pywws,2013-02-28 14:54:00,
2013-02-28 09:59:00,37.9,25.7,29.83,NE,45,1.6,3.1,61,0.00,,,0.01,pywws,2013-02-28 14:59:00,
2013-02-28 10:05:00,39.0,26.3,29.83,NW,315,1.6,3.1,60,0.00,,,0.01,pywws,2013-02-28 15:05:00,
2013-02-28 10:10:00,40.1,26.5,29.83,North,0,0.0,1.6,58,0.00,,,0.01,pywws,2013-02-28 15:10:00,
2013-02-28 10:16:00,41.0,26.5,29.82,WSW,248,2.2,5.4,56,0.00,,,0.01,pywws,2013-02-28 15:16:00,
2013-02-28 10:22:00,40.8,25.9,29.82,NW,315,2.2,7.6,55,0.00,,,0.01,pywws,2013-02-28 15:22:00,
2013-02-28 10:27:00,41.9,26.5,29.82,West,270,1.6,3.8,54,0.00,,,0.01,pywws,2013-02-28 15:27:00,
2013-02-28 10:33:00,42.6,26.7,29.82,North,0,2.2,3.1,53,0.00,,,0.01,pywws,2013-02-28 15:33:00,
2013-02-28 10:38:00,42.4,26.1,29.82,NW,315,1.6,3.1,52,0.00,,,0.01,pywws,2013-02-28 15:38:00,
2013-02-28 10:44:00,41.7,24.9,29.82,WNW,292,3.8,5.4,51,0.00,,,0.01,pywws,2013-02-28 15:44:00,
2013-02-28 10:50:00,39.9,24.6,29.82,NE,45,1.6,2.2,54,0.00,,,0.01,pywws,2013-02-28 15:50:00,
2013-02-28 10:55:00,39.4,25.0,29.82,SW,225,1.6,3.1,56,0.00,,,0.01,pywws,2013-02-28 15:55:00,
2013-02-28 11:01:00,39.6,25.2,29.82,NE,45,2.2,3.8,56,0.00,,,0.01,pywws,2013-02-28 16:01:00,
2013-02-28 11:06:00,38.7,24.3,29.83,NNE,22,3.1,4.5,56,0.00,,,0.01,pywws,2013-02-28 16:06:00,
2013-02-28 11:12:00,38.3,24.8,29.83,NW,315,0.7,2.2,58,0.00,,,0.01,pywws,2013-02-28 16:12:00,
2013-02-28 11:18:00,37.6,24.6,29.83,East,90,3.8,5.4,59,0.00,,,0.01,pywws,2013-02-28 16:18:00,
2013-02-28 11:23:00,36.7,22.9,29.83,NE,45,9.8,12.1,57,0.00,,,0.01,pywws,2013-02-28 16:23:00,
2013-02-28 11:29:00,35.1,24.5,29.84,NE,45,3.8,6.9,65,0.00,,,0.01,pywws,2013-02-28 16:29:00,
2013-02-28 11:34:00,34.3,24.9,29.84,NE,45,5.4,8.3,68,0.00,,,0.01,pywws,2013-02-28 16:34:00,
2013-02-28 11:40:00,33.6,25.6,29.84,SW,225,3.8,5.4,72,0.00,,,0.01,pywws,2013-02-28 16:40:00,
2013-02-28 11:46:00,33.8,25.7,29.84,East,90,3.8,6.9,72,0.00,,,0.01,pywws,2013-02-28 16:46:00,
2013-02-28 11:51:00,34.0,25.6,29.84,NW,315,6.0,7.6,71,0.00,,,0.01,pywws,2013-02-28 16:51:00,
2013-02-28 11:57:00,34.5,25.8,29.84,NE,45,3.1,6.9,70,0.00,,,0.01,pywws,2013-02-28 16:57:00,
2013-02-28 12:02:00,34.7,25.6,29.84,North,0,3.8,4.5,69,0.00,,,0.01,pywws,2013-02-28 17:02:00,
2013-02-28 12:08:00,34.7,25.6,29.85,North,0,6.0,8.3,69,0.00,,,0.01,pywws,2013-02-28 17:08:00,
2013-02-28 12:14:00,35.2,26.1,29.85,NW,315,0.7,2.2,69,0.00,,,0.01,pywws,2013-02-28 17:14:00,
2013-02-28 12:19:00,36.3,26.4,29.85,North,0,0.7,1.6,67,0.00,,,0.01,pywws,2013-02-28 17:19:00,
2013-02-28 12:25:00,36.7,25.7,29.85,East,90,2.2,4.5,64,0.00,,,0.01,pywws,2013-02-28 17:25:00,
2013-02-28 12:30:00,36.7,25.3,29.85,NW,315,0.7,1.6,63,0.00,,,0.01,pywws,2013-02-28 17:30:00,
2013-02-28 12:36:00,38.3,28.3,29.85,NW,315,2.2,4.5,67,0.00,,,0.01,pywws,2013-02-28 17:36:00,
2013-02-28 12:42:00,39.4,26.7,29.85,NW,315,2.2,3.1,60,0.00,,,0.01,pywws,2013-02-28 17:42:00,
2013-02-28 12:47:00,40.6,28.3,29.85,North,0,1.6,3.1,61,0.00,,,0.01,pywws,2013-02-28 17:47:00,
2013-02-28 12:53:00,40.6,27.0,29.85,SW,225,2.2,4.5,58,0.00,,,0.01,pywws,2013-02-28 17:53:00,
2013-02-28 12:58:00,41.9,26.9,29.85,NE,45,5.4,13.6,55,0.00,,,0.01,pywws,2013-02-28 17:58:00,
2013-02-28 13:04:00,40.8,25.9,29.85,North,0,3.1,6.9,55,0.00,,,0.01,pywws,2013-02-28 18:04:00,
2013-02-28 13:10:00,39.4,25.0,29.85,North,0,2.2,4.5,56,0.00,,,0.01,pywws,2013-02-28 18:10:00,
2013-02-28 13:16:00,39.0,25.5,29.85,NE,45,1.6,5.4,58,0.00,,,0.01,pywws,2013-02-28 18:16:00,
2013-02-28 13:22:00,38.7,25.6,29.85,ENE,68,5.4,9.8,59,0.00,,,0.01,pywws,2013-02-28 18:22:00,
2013-02-28 13:27:00,39.4,25.4,29.84,North,0,4.5,10.7,57,0.00,,,0.01,pywws,2013-02-28 18:27:00,
2013-02-28 13:33:00,41.5,26.6,29.85,East,90,1.6,6.0,55,0.00,,,0.01,pywws,2013-02-28 18:33:00,
2013-02-28 13:38:00,42.8,26.4,29.84,South,180,0.7,1.6,52,0.00,,,0.01,pywws,2013-02-28 18:38:00,
2013-02-28 13:44:00,43.3,26.0,29.84,West,270,4.5,6.9,50,0.00,,,0.01,pywws,2013-02-28 18:44:00,
2013-02-28 13:50:00,44.1,25.1,29.84,West,270,2.2,3.8,47,0.00,,,0.01,pywws,2013-02-28 18:50:00,
2013-02-28 13:55:00,44.4,26.0,29.85,WSW,248,1.6,3.8,48,0.00,,,0.01,pywws,2013-02-28 18:55:00,
2013-02-28 14:01:00,44.2,24.3,29.85,North,0,2.2,4.5,45,0.00,,,0.01,pywws,2013-02-28 19:01:00,
2013-02-28 14:06:00,45.3,24.7,29.85,NW,315,2.2,5.4,44,0.00,,,0.01,pywws,2013-02-28 19:06:00,
2013-02-28 14:12:00,44.2,23.7,29.85,North,0,4.5,6.9,44,0.00,,,0.01,pywws,2013-02-28 19:12:00,
2013-02-28 14:18:00,44.2,24.8,29.84,North,0,2.2,4.5,46,0.00,,,0.01,pywws,2013-02-28 19:18:00,
2013-02-28 14:23:00,43.9,23.4,29.84,South,180,0.7,4.5,44,0.00,,,0.01,pywws,2013-02-28 19:23:00,
2013-02-28 14:29:00,43.2,23.3,29.85,NW,315,2.2,6.9,45,0.00,,,0.01,pywws,2013-02-28 19:29:00,
2013-02-28 14:34:00,41.9,23.2,29.85,North,0,0.7,1.6,47,0.00,,,0.01,pywws,2013-02-28 19:34:00,
2013-02-28 14:40:00,41.9,23.7,29.85,NE,45,1.6,3.1,48,0.00,,,0.01,pywws,2013-02-28 19:40:00,
2013-02-28 14:46:00,41.9,23.2,29.85,ESE,112,3.1,5.4,47,0.00,,,0.01,pywws,2013-02-28 19:46:00,
2013-02-28 14:51:00,41.0,22.8,29.85,East,90,3.1,4.5,48,0.00,,,0.01,pywws,2013-02-28 19:51:00,
2013-02-28 14:57:00,41.0,22.8,29.85,NW,315,3.8,6.9,48,0.00,,,0.01,pywws,2013-02-28 19:57:00,
2013-02-28 15:02:00,40.6,23.0,29.85,North,0,0.7,1.6,49,0.00,,,0.01,pywws,2013-02-28 20:02:00,
2013-02-28 15:08:00,41.0,23.3,29.85,NW,315,3.8,6.0,49,0.00,,,0.01,pywws,2013-02-28 20:08:00,
2013-02-28 15:14:00,40.5,23.8,29.85,East,90,0.7,1.6,51,0.00,,,0.01,pywws,2013-02-28 20:14:00,
2013-02-28 15:19:00,39.6,22.9,29.85,NE,45,3.1,5.4,51,0.00,,,0.01,pywws,2013-02-28 20:19:00,
2013-02-28 15:25:00,39.0,23.8,29.85,NW,315,3.1,5.4,54,0.00,,,0.01,pywws,2013-02-28 20:25:00,
2013-02-28 15:31:00,39.4,23.2,29.85,NW,315,0.7,2.2,52,0.00,,,0.01,pywws,2013-02-28 20:31:00,
2013-02-28 15:37:00,40.5,23.8,29.86,West,270,5.4,6.9,51,0.00,,,0.01,pywws,2013-02-28 20:37:00,
2013-02-28 15:42:00,43.5,25.6,29.86,West,270,0.7,3.1,49,0.00,,,0.01,pywws,2013-02-28 20:42:00,
2013-02-28 15:48:00,44.4,24.9,29.86,South,180,4.5,6.9,46,0.00,,,0.01,pywws,2013-02-28 20:48:00,
2013-02-28 15:54:00,44.2,24.8,29.86,NE,45,2.2,3.8,46,0.00,,,0.01,pywws,2013-02-28 20:54:00,
2013-02-28 15:59:00,44.8,23.7,29.86,East,90,1.6,3.1,43,0.00,,,0.01,pywws,2013-02-28 20:59:00,
2013-02-28 16:05:00,44.8,23.1,29.86,North,0,6.9,9.2,42,0.00,,,0.01,pywws,2013-02-28 21:05:00,
2013-02-28 16:10:00,42.1,22.8,29.87,North,0,3.1,6.9,46,0.00,,,0.01,pywws,2013-02-28 21:10:00,
2013-02-28 16:16:00,40.5,22.8,29.87,North,0,3.8,6.9,49,0.00,,,0.01,pywws,2013-02-28 21:16:00,
2013-02-28 16:22:00,40.1,23.0,29.87,North,0,2.2,5.4,50,0.00,,,0.01,pywws,2013-02-28 21:22:00,
2013-02-28 16:27:00,41.0,22.8,29.87,SW,225,1.6,2.2,48,0.00,,,0.01,pywws,2013-02-28 21:27:00,
2013-02-28 16:33:00,41.9,23.2,29.88,North,0,2.2,3.8,47,0.00,,,0.01,pywws,2013-02-28 21:33:00,
2013-02-28 16:38:00,43.3,22.9,29.88,NW,315,2.2,3.1,44,0.00,,,0.01,pywws,2013-02-28 21:38:00,
2013-02-28 16:44:00,42.4,23.1,29.88,West,270,0.7,2.2,46,0.00,,,0.01,pywws,2013-02-28 21:44:00,
2013-02-28 16:50:00,43.2,22.7,29.88,SW,225,1.6,3.8,44,0.00,,,0.01,pywws,2013-02-28 21:50:00,
2013-02-28 16:55:00,41.2,22.0,29.88,WSW,248,2.2,6.0,46,0.00,,,0.01,pywws,2013-02-28 21:55:00,
2013-02-28 17:01:00,39.2,21.7,29.88,NE,45,1.6,3.8,49,0.00,,,0.01,pywws,2013-02-28 22:01:00,
2013-02-28 17:06:00,38.1,22.1,29.88,North,0,1.6,4.5,52,0.00,,,0.01,pywws,2013-02-28 22:06:00,
2013-02-28 17:12:00,37.6,22.5,29.89,South,180,1.6,2.2,54,0.00,,,0.01,pywws,2013-02-28 22:12:00,
2013-02-28 17:18:00,37.2,20.8,29.90,NW,315,3.1,4.5,51,0.00,,,0.01,pywws,2013-02-28 22:18:00,
2013-02-28 17:23:00,36.7,20.3,29.90,North,0,1.6,3.8,51,0.00,,,0.01,pywws,2013-02-28 22:23:00,
2013-02-28 17:29:00,36.1,19.8,29.90,NE,45,2.2,4.5,51,0.00,,,0.01,pywws,2013-02-28 22:29:00,
2013-02-28 17:34:00,35.8,19.9,29.91,NE,45,3.8,9.2,52,0.00,,,0.01,pywws,2013-02-28 22:34:00,
2013-02-28 17:40:00,35.2,20.3,29.90,South,180,0.7,2.2,54,0.00,,,0.01,pywws,2013-02-28 22:40:00,
2013-02-28 17:46:00,35.1,20.5,29.91,NE,45,1.6,2.2,55,0.00,,,0.01,pywws,2013-02-28 22:46:00,
2013-02-28 17:51:00,34.7,20.2,29.91,West,270,0.7,2.2,55,0.00,,,0.01,pywws,2013-02-28 22:51:00,
2013-02-28 17:57:00,34.5,20.0,29.91,NW,315,0.0,0.7,55,0.00,,,0.01,pywws,2013-02-28 22:57:00,
2013-02-28 18:02:00,34.5,20.0,29.91,NW,315,0.0,0.7,55,0.00,,,0.01,pywws,2013-02-28 23:02:00,
2013-02-28 18:08:00,34.2,19.7,29.91,South,180,0.0,1.6,55,0.00,,,0.01,pywws,2013-02-28 23:08:00,
2013-02-28 18:14:00,34.2,20.1,29.91,North,0,0.7,1.6,56,0.00,,,0.01,pywws,2013-02-28 23:14:00,
2013-02-28 18:19:00,34.2,20.1,29.91,SW,225,0.7,1.6,56,0.00,,,0.01,pywws,2013-02-28 23:19:00,
2013-02-28 18:25:00,34.2,20.1,29.91,NW,315,1.6,3.1,56,0.00,,,0.01,pywws,2013-02-28 23:25:00,
2013-02-28 18:30:00,33.8,19.8,29.92,NW,315,0.7,1.6,56,0.00,,,0.01,pywws,2013-02-28 23:30:00,
2013-02-28 18:36:00,33.6,20.0,29.92,West,270,0.7,2.2,57,0.00,,,0.01,pywws,2013-02-28 23:36:00,
2013-02-28 18:42:00,33.8,20.2,29.92,North,0,1.6,2.2,57,0.00,,,0.01,pywws,2013-02-28 23:42:00,
2013-02-28 18:47:00,33.6,20.4,29.92,South,180,3.8,5.4,58,0.00,,,0.01,pywws,2013-02-28 23:47:00,
2013-02-28 18:53:00,33.8,20.2,29.92,SW,225,1.6,4.5,57,0.00,,,0.01,pywws,2013-02-28 23:53:00,
2013-02-28 18:58:00,33.6,20.4,29.92,SW,225,3.8,9.2,58,0.00,,,0.01,pywws,2013-02-28 23:58:00,
2013-02-28 19:04:00,33.6,20.4,29.92,NE,45,1.6,3.8,58,0.00,,,0.01,pywws,2013-03-01 00:04:00,
2013-02-28 19:10:00,33.4,20.3,29.93,North,0,2.2,3.8,58,0.00,,,0.01,pywws,2013-03-01 00:10:00,
2013-02-28 19:15:00,33.4,20.3,29.93,NW,315,0.7,2.2,58,0.00,,,0.01,pywws,2013-03-01 00:15:00,
2013-02-28 19:21:00,33.4,20.3,29.92,NE,45,1.6,3.1,58,0.00,,,0.01,pywws,2013-03-01 00:21:00,
2013-02-28 19:26:00,33.4,20.3,29.92,North,0,0.7,1.6,58,0.00,,,0.01,pywws,2013-03-01 00:26:00,
2013-02-28 19:32:00,33.4,20.3,29.92,South,180,0.7,2.2,58,0.00,,,0.01,pywws,2013-03-01 00:32:00,
2013-02-28 19:38:00,33.3,20.1,29.92,NW,315,0.7,3.1,58,0.00,,,0.01,pywws,2013-03-01 00:38:00,
2013-02-28 19:43:00,33.3,20.1,29.92,NE,45,0.7,1.6,58,0.00,,,0.01,pywws,2013-03-01 00:43:00,
2013-02-28 19:49:00,33.3,20.1,29.92,NW,315,1.6,3.1,58,0.00,,,0.01,pywws,2013-03-01 00:49:00,
2013-02-28 19:54:00,33.1,19.9,29.91,NW,315,1.6,3.8,58,0.00,,,0.01,pywws,2013-03-01 00:54:00,
2013-02-28 20:00:00,33.1,19.9,29.91,West,270,2.2,5.4,58,0.00,,,0.01,pywws,2013-03-01 01:00:00,
2013-02-28 20:06:00,33.1,19.9,29.91,West,270,2.2,5.4,58,0.00,,,0.01,pywws,2013-03-01 01:06:00,
2013-02-28 20:11:00,33.1,20.3,29.91,North,0,1.6,2.2,59,0.00,,,0.01,pywws,2013-03-01 01:11:00,
2013-02-28 20:17:00,32.9,20.2,29.91,North,0,0.7,2.2,59,0.00,,,0.01,pywws,2013-03-01 01:17:00,
2013-02-28 20:22:00,32.9,20.2,29.91,NE,45,0.0,0.7,59,0.00,,,0.01,pywws,2013-03-01 01:22:00,
2013-02-28 20:28:00,32.9,20.2,29.91,NE,45,3.1,6.0,59,0.00,,,0.01,pywws,2013-03-01 01:28:00,
2013-02-28 20:34:00,32.9,20.6,29.91,NE,45,0.7,2.2,60,0.00,,,0.01,pywws,2013-03-01 01:34:00,
2013-02-28 20:39:00,32.7,20.4,29.92,South,180,1.6,3.8,60,0.00,,,0.01,pywws,2013-03-01 01:39:00,
2013-02-28 20:45:00,32.9,20.6,29.92,North,0,0.7,1.6,60,0.00,,,0.01,pywws,2013-03-01 01:45:00,
2013-02-28 20:50:00,32.7,20.8,29.91,North,0,0.0,1.6,61,0.00,,,0.01,pywws,2013-03-01 01:50:00,
2013-02-28 20:56:00,32.7,20.8,29.92,NE,45,0.0,3.1,61,0.00,,,0.01,pywws,2013-03-01 01:56:00,
2013-02-28 21:02:00,32.7,20.8,29.92,NE,45,1.6,3.8,61,0.00,,,0.01,pywws,2013-03-01 02:02:00,
2013-02-28 21:07:00,32.7,21.2,29.92,NNE,22,0.7,2.2,62,0.00,,,0.01,pywws,2013-03-01 02:07:00,
2013-02-28 21:13:00,32.7,21.2,29.92,NW,315,1.6,6.0,62,0.00,,,0.01,pywws,2013-03-01 02:13:00,
2013-02-28 21:18:00,32.7,21.5,29.92,NW,315,0.7,1.6,63,0.00,,,0.01,pywws,2013-03-01 02:18:00,
2013-02-28 21:24:00,32.5,21.4,29.92,North,0,0.7,2.2,63,0.00,,,0.01,pywws,2013-03-01 02:24:00,
2013-02-28 21:30:00,32.5,21.4,29.92,NE,45,2.2,3.8,63,0.00,,,0.01,pywws,2013-03-01 02:30:00,
2013-02-28 21:35:00,32.5,21.4,29.92,NE,45,2.2,4.5,63,0.00,,,0.01,pywws,2013-03-01 02:35:00,
2013-02-28 21:41:00,32.5,21.4,29.92,NE,45,1.6,2.2,63,0.00,,,0.01,pywws,2013-03-01 02:41:00,
2013-02-28 21:46:00,32.4,21.2,29.92,NE,45,0.7,1.6,63,0.00,,,0.01,pywws,2013-03-01 02:46:00,
2013-02-28 21:52:00,32.4,21.2,29.91,North,0,0.7,1.6,63,0.00,,,0.01,pywws,2013-03-01 02:52:00,
2013-02-28 21:58:00,32.4,21.2,29.91,NW,315,0.7,1.6,63,0.00,,,0.01,pywws,2013-03-01 02:58:00,
2013-02-28 22:03:00,32.4,21.6,29.92,NE,45,0.7,3.1,64,0.00,,,0.01,pywws,2013-03-01 03:03:00,
2013-02-28 22:09:00,32.4,21.6,29.92,East,90,0.7,3.1,64,0.00,,,0.01,pywws,2013-03-01 03:09:00,
2013-02-28 22:14:00,32.4,21.6,29.92,North,0,0.7,1.6,64,0.00,,,0.01,pywws,2013-03-01 03:14:00,
2013-02-28 22:20:00,32.4,21.6,29.91,North,0,0.7,1.6,64,0.00,,,0.01,pywws,2013-03-01 03:20:00,
2013-02-28 22:26:00,32.2,21.8,29.92,North,0,0.7,2.2,65,0.00,,,0.01,pywws,2013-03-01 03:26:00,
2013-02-28 22:31:00,32.2,21.8,29.92,NW,315,1.6,3.1,65,0.00,,,0.01,pywws,2013-03-01 03:31:00,
2013-02-28 22:37:00,32.2,21.8,29.92,NW,315,0.7,1.6,65,0.00,,,0.01,pywws,2013-03-01 03:37:00,
2013-02-28 22:42:00,32.2,21.8,29.93,NW,315,0.0,1.6,65,0.00,,,0.01,pywws,2013-03-01 03:42:00,
2013-02-28 22:48:00,32.2,21.8,29.93,NW,315,2.2,3.8,65,0.00,,,0.01,pywws,2013-03-01 03:48:00,
2013-02-28 22:54:00,32.0,21.6,29.92,West,270,0.7,1.6,65,0.00,,,0.01,pywws,2013-03-01 03:54:00,
2013-02-28 22:59:00,32.0,21.9,29.92,North,0,0.7,1.6,66,0.00,,,0.01,pywws,2013-03-01 03:59:00,
2013-02-28 23:05:00,32.0,21.9,29.92,North,0,0.7,1.6,66,0.00,,,0.01,pywws,2013-03-01 04:05:00,
2013-02-28 23:10:00,32.0,21.9,29.91,South,180,0.7,2.2,66,0.00,,,0.01,pywws,2013-03-01 04:10:00,
2013-02-28 23:16:00,32.0,21.9,29.92,North,0,0.0,0.7,66,0.00,,,0.01,pywws,2013-03-01 04:16:00,
2013-02-28 23:22:00,32.0,21.9,29.92,ESE,112,0.7,2.2,66,0.00,,,0.01,pywws,2013-03-01 04:22:00,
2013-02-28 23:27:00,32.0,21.9,29.92,East,90,0.7,3.1,66,0.00,,,0.01,pywws,2013-03-01 04:27:00,
2013-02-28 23:33:00,32.0,21.9,29.92,NW,315,0.0,1.6,66,0.00,,,0.01,pywws,2013-03-01 04:33:00,
2013-02-28 23:38:00,32.0,21.9,29.92,North,0,0.0,1.6,66,0.00,,,0.01,pywws,2013-03-01 04:38:00,
2013-02-28 23:44:00,32.0,22.3,29.92,North,0,0.0,0.7,67,0.00,,,0.01,pywws,2013-03-01 04:44:00,
2013-02-28 23:50:00,32.0,22.3,29.92,NE,45,2.2,3.1,67,0.00,,,0.01,pywws,2013-03-01 04:50:00,
2013-02-28 23:56:00,31.8,22.5,29.92,North,0,0.7,1.6,68,0.00,,,0.01,pywws,2013-03-01 04:56:00,